Content
SEND FEEDBACK

Daily
Averages
Monthly
Summary
United States of America

OTTERTAIL, MINNESOTA


Home > North America > United States > Minnesota
Elevation: 1356 feet     Latitude: 46 25N     Longitude: 095 34W

WEATHER
 
SELECT A DAY
Number of Records: 459,032;   Date Range: 1/1/95 - 9/16/14
 
SHARE

PRINT THIS DATA

[ ← Previous Day ]
WEATHER ALMANAC - FEBRUARY 18, 2013
[ Next Day → ]
[ °C ]   °F
Weather ElementAverageHighLow
Temperature11.1 °F30.2 °F (12:33 am)-2.2 °F (7:33 pm)
Dewpoint6.8 °F30.2 °F (4:53 am)-9.4 °F (9:13 pm)
Humidity82.7 %100 % (2:33 am)71 % (9:13 pm)
Barometer29.75 in30.03 in (11:53 pm)29.48 in (2:53 am)
Wind Speed23.5 mph34.5 mph (2:13 pm)
Wind Gust47.2 mph (2:13 pm)
Weather ElementAverage
Visibility3.2 mi
Wind DirectionNW (312.2 °)

Weather ElementTotal
Precipitation---
Heating Degree Days51 (Base 65)
Averaged from 69 records on February 18, 2013
WEATHER CONDITIONS BREAKOUT
WIND DIRECTION BREAKOUT
WEATHER BY HOUR - FEBRUARY 18, 2013
[ °C ]   °F
Local TimeTemperatureDewpointHumidityBarometerVisibilityWind DirectionWind SpeedGust SpeedPrecipitationEventsConditions
12:33 AM30.2 °F26.6 °F86 %29.50 in10.0 miSouth (180°)10.4 mphClear
12:53 AM30.2 °F26.6 °F86 %29.49 in10.0 miSouth (180°)9.2 mphClear
1:13 AM28.4 °F26.6 °F93 %29.49 in10.0 miSSW (200°)6.9 mphClear
1:33 AM28.4 °F26.6 °F93 %29.49 in7.0 miSSW (210°)8.1 mphClear
1:53 AM28.4 °F26.6 °F93 %29.49 in7.0 miSouth (190°)6.9 mphClear
2:13 AM28.4 °F26.6 °F93 %29.49 in7.0 miSSW (210°)6.9 mphClear
2:33 AM26.6 °F26.6 °F100 %29.49 in7.0 miSSW (210°)8.1 mphClear
2:53 AM28.4 °F26.6 °F93 %29.48 in5.0 miSSW (210°)5.8 mphClear
3:13 AM28.4 °F26.6 °F93 %29.48 in5.0 miWSW (240°)4.6 mphClear
3:33 AM28.4 °F26.6 °F93 %29.48 in5.0 miWSW (250°)5.8 mphClear
3:53 AM28.4 °F26.6 °F93 %29.48 in5.0 miWSW (250°)3.5 mphScattered Clouds
4:13 AM28.4 °F26.6 °F93 %29.49 in5.0 miWest (260°)5.8 mphScattered Clouds
4:33 AM28.4 °F26.6 °F93 %29.49 in3.0 miWest (270°)5.8 mphScattered Clouds
4:53 AM30.2 °F30.2 °F100 %29.49 in2.0 miNW (310°)20.7 mph25.3 mphOvercast
5:13 AM26.6 °F24.8 °F93 %29.51 in2.5 miNNW (330°)21.9 mphMostly Cloudy
5:33 AM24.8 °F23.0 °F93 %29.53 in4.0 miNNW (330°)28.8 mph35.7 mphScattered Clouds
5:53 AM24.8 °F21.2 °F86 %29.54 in7.0 miNNW (330°)26.5 mph29.9 mphScattered Clouds
6:13 AM24.8 °F21.2 °F86 %29.55 in10.0 miNNW (330°)26.5 mph32.2 mphScattered Clouds
6:32 AM23.0 °F19.4 °F86 %29.56 in10.0 miNNW (330°)29.9 mph34.5 mphMostly Cloudy
6:53 AM21.2 °F17.6 °F86 %29.57 in7.0 miNNW (330°)29.9 mph38.0 mphMostly Cloudy
7:13 AM19.4 °F17.6 °F93 %29.59 in4.0 miNNW (330°)28.8 mph34.5 mphMostly Cloudy
7:33 AM17.6 °F15.8 °F93 %29.60 in2.0 miNNW (330°)28.8 mph39.1 mphOvercast
8:13 AM15.8 °F10.4 °F79 %29.62 in1.2 miNNW (330°)29.9 mph36.8 mphSnowLight Snow
8:32 AM14.0 °F10.4 °F86 %29.64 in2.5 miNNW (330°)26.5 mph42.6 mphSnowLight Snow
8:53 AM12.2 °F10.4 °F92 %29.66 in1.0 miNNW (330°)27.6 mph39.1 mphSnowLight Snow
9:13 AM12.2 °F8.6 °F85 %29.68 in1.2 miNNW (330°)23.0 mph42.6 mphSnowLight Snow
9:32 AM10.4 °F8.6 °F92 %29.69 in0.8 miNNW (330°)28.8 mphSnowLight Snow
9:53 AM10.4 °F6.8 °F85 %29.69 in1.2 miNNW (330°)29.9 mph40.3 mphSnowLight Snow
10:13 AM10.4 °F6.8 °F85 %29.71 in0.5 miNNW (330°)32.2 mph39.1 mphSnowLight Snow
10:33 AM10.4 °F5.0 °F79 %29.72 in2.0 miNNW (330°)29.9 mph36.8 mphHaze
10:53 AM8.6 °F5.0 °F85 %29.74 in1.8 miNNW (330°)27.6 mph40.3 mphSnowLight Snow
11:13 AM8.6 °F5.0 °F85 %29.75 in0.8 miNNW (330°)26.5 mph34.5 mphSnowLight Snow
11:33 AM8.6 °F3.2 °F79 %29.76 in1.0 miNNW (340°)28.8 mph36.8 mphSnowLight Snow
11:53 AM8.6 °F3.2 °F79 %29.77 in1.2 miNNW (340°)31.1 mph38.0 mphSnowLight Snow
12:13 PM8.6 °F3.2 °F79 %29.77 in1.5 miNNW (340°)28.8 mph38.0 mphHaze
12:33 PM8.6 °F1.4 °F73 %29.78 in1.5 miNNW (330°)23.0 mph40.3 mphSnowLight Snow
12:53 PM8.6 °F3.2 °F79 %29.78 inNNW (340°)32.2 mph40.3 mphSnowLight Snow
1:13 PM8.6 °F1.4 °F73 %29.78 in1.5 miNNW (340°)28.8 mph41.4 mphHaze
1:33 PM6.8 °F-0.4 °F72 %29.78 in2.5 miNNW (330°)29.9 mph44.9 mphHaze
1:53 PM6.8 °F-0.4 °F72 %29.79 in1.0 miNNW (330°)31.1 mph44.9 mphSnowLight Snow
2:13 PM5.0 °F-0.4 °F78 %29.80 in1.8 miNNW (340°)34.5 mph47.2 mphHaze
2:33 PM5.0 °F-0.4 °F78 %29.82 in1.2 miNNW (330°)27.6 mph39.1 mphHaze
2:53 PM3.2 °F-0.4 °F85 %29.83 in0.8 miNNW (330°)27.6 mph34.5 mphHaze
3:13 PM3.2 °F-2.2 °F78 %29.84 in0.8 miNNW (330°)25.3 mph36.8 mphHaze
3:33 PM3.2 °F-2.2 °F78 %29.85 in1.5 miNNW (330°)31.1 mphHaze
3:53 PM3.2 °F-4.0 °F72 %29.87 in1.5 miNNW (340°)26.5 mph36.8 mphHaze
4:13 PM1.4 °F-4.0 °F78 %29.87 in1.2 miNNW (330°)27.6 mph36.8 mphHaze
4:33 PM1.4 °F-5.8 °F72 %29.88 in2.5 miNNW (340°)27.6 mph36.8 mphHaze
4:53 PM1.4 °F-4.0 °F78 %29.88 in1.2 miNNW (330°)31.1 mph38.0 mphHaze
5:13 PM1.4 °F-4.0 °F78 %29.90 in1.2 miNNW (340°)27.6 mph38.0 mphHaze
5:33 PM1.4 °F-5.8 °F72 %29.91 in1.2 miNNW (340°)29.9 mph34.5 mphHaze
5:53 PM-0.4 °F-5.8 °F78 %29.93 in4.0 miNNW (330°)25.3 mph39.1 mphHaze
6:13 PM-0.4 °F-5.8 °F78 %29.93 in2.0 miNNW (340°)28.8 mph34.5 mphHaze
6:33 PM-0.4 °F-5.8 °F78 %29.94 in2.5 miNNW (340°)26.5 mph39.1 mphHaze
6:53 PM-0.4 °F-5.8 °F78 %29.95 in3.0 miNNW (330°)26.5 mph38.0 mphHaze
7:13 PM-0.4 °F-7.6 °F72 %29.96 in1.8 miNNW (330°)26.5 mph34.5 mphHaze
7:33 PM-2.2 °F-7.6 °F78 %29.96 in2.0 miNNW (340°)28.8 mph34.5 mphHaze
7:53 PM-2.2 °F-7.6 °F78 %29.97 in2.0 miNNW (340°)23.0 mph32.2 mphHaze
8:13 PM-2.2 °F-7.6 °F78 %29.97 in3.0 miNNW (340°)24.2 mph35.7 mphHaze
8:33 PM-2.2 °F-7.6 °F78 %29.98 in3.0 miNNW (340°)25.3 mph33.4 mphHaze
8:53 PM-2.2 °F-7.6 °F78 %29.98 in2.5 miNNW (340°)25.3 mph33.4 mphHaze
9:13 PM-2.2 °F-9.4 °F71 %29.98 in2.5 miNNW (340°)26.5 mph32.2 mphHaze
9:53 PM-2.2 °F-7.6 °F78 %30.00 in2.0 miNNW (330°)23.0 mph29.9 mphHaze
10:13 PM-2.2 °F-7.6 °F78 %30.00 in2.0 miNNW (330°)24.2 mph35.7 mphHaze
10:33 PM-2.2 °F-7.6 °F78 %30.00 in2.0 miNNW (340°)24.2 mph32.2 mphHaze
10:53 PM-0.4 °F-7.6 °F72 %30.01 in2.5 miNNW (330°)24.2 mph32.2 mphHaze
11:13 PM-0.4 °F-5.8 °F78 %30.02 in2.0 miNNW (340°)24.2 mph34.5 mphHaze
11:33 PM-0.4 °F-5.8 °F78 %30.02 in2.0 miNNW (340°)25.3 mph32.2 mphHaze
11:53 PM-0.4 °F-7.6 °F72 %30.03 in1.8 miNNW (340°)28.8 mph33.4 mphHaze
Hourly data recorded from KFFM, located miles away from Ottertail, Minnesota







STORIES FROM OUR PARTNERS